Year,Month,Day,Hour,Minute,Value (Times are PST for temperature in C)
2018,08,09,00,00,23.60
2018,08,09,00,01,23.60
2018,08,09,00,02,23.50
2018,08,09,00,03,23.50
2018,08,09,00,04,23.50
2018,08,09,00,05,23.50
2018,08,09,00,06,23.50
2018,08,09,00,07,23.50
2018,08,09,00,08,23.50
2018,08,09,00,09,23.50
2018,08,09,00,10,23.50
2018,08,09,00,11,23.40
2018,08,09,00,12,23.40
2018,08,09,00,13,23.40
2018,08,09,00,14,23.40
2018,08,09,00,15,23.30
2018,08,09,00,16,23.30
2018,08,09,00,17,23.30
2018,08,09,00,18,23.30
2018,08,09,00,19,23.30
2018,08,09,00,20,23.30
2018,08,09,00,21,23.30
2018,08,09,00,22,23.30
2018,08,09,00,23,23.30
2018,08,09,00,24,23.30
2018,08,09,00,25,23.30
2018,08,09,00,26,23.20
2018,08,09,00,27,23.20
2018,08,09,00,28,23.20
2018,08,09,00,29,23.10
2018,08,09,00,30,23.10
2018,08,09,00,31,23.00
2018,08,09,00,32,23.00
2018,08,09,00,33,22.90
2018,08,09,00,34,22.90
2018,08,09,00,35,22.90
2018,08,09,00,36,22.90
2018,08,09,00,37,22.90
2018,08,09,00,38,22.80
2018,08,09,00,39,22.80
2018,08,09,00,40,22.80
2018,08,09,00,41,22.80
2018,08,09,00,42,22.80
2018,08,09,00,43,22.80
2018,08,09,00,44,22.80
2018,08,09,00,45,22.80
2018,08,09,00,46,22.80
2018,08,09,00,47,22.80
2018,08,09,00,48,22.80
2018,08,09,00,49,22.80
2018,08,09,00,50,22.80
2018,08,09,00,51,22.80
2018,08,09,00,52,22.80
2018,08,09,00,53,22.80
2018,08,09,00,54,22.80
2018,08,09,00,55,22.70
2018,08,09,00,56,22.70
2018,08,09,00,57,22.70
2018,08,09,00,58,22.70
2018,08,09,00,59,22.70
2018,08,09,01,00,22.60
2018,08,09,01,01,22.60
2018,08,09,01,02,22.60
2018,08,09,01,03,22.60
2018,08,09,01,04,22.60
2018,08,09,01,05,22.50
2018,08,09,01,06,22.50
2018,08,09,01,07,22.50
2018,08,09,01,08,22.50
2018,08,09,01,09,22.40
2018,08,09,01,10,22.40
2018,08,09,01,11,22.40
2018,08,09,01,12,22.40
2018,08,09,01,13,22.40
2018,08,09,01,14,22.40
2018,08,09,01,15,22.30
2018,08,09,01,16,22.30
2018,08,09,01,17,22.30
2018,08,09,01,18,22.30
2018,08,09,01,19,22.30
2018,08,09,01,20,22.20
2018,08,09,01,21,22.20
2018,08,09,01,22,22.20
2018,08,09,01,23,22.20
2018,08,09,01,24,22.20
2018,08,09,01,25,22.20
2018,08,09,01,26,22.20
2018,08,09,01,27,22.20
2018,08,09,01,28,22.20
2018,08,09,01,29,22.20
2018,08,09,01,30,22.20
2018,08,09,01,31,22.20
2018,08,09,01,32,22.10
2018,08,09,01,33,22.10
2018,08,09,01,34,22.10
2018,08,09,01,35,22.10
2018,08,09,01,36,22.10
2018,08,09,01,37,22.10
2018,08,09,01,38,22.10
2018,08,09,01,39,22.00
2018,08,09,01,40,22.00
2018,08,09,01,41,22.00
2018,08,09,01,42,22.00
2018,08,09,01,43,22.00
2018,08,09,01,44,21.90
2018,08,09,01,45,21.90
2018,08,09,01,46,21.90
2018,08,09,01,47,21.90
2018,08,09,01,48,21.90
2018,08,09,01,49,21.90
2018,08,09,01,50,21.80
2018,08,09,01,51,21.80
2018,08,09,01,52,21.80
2018,08,09,01,53,21.80
2018,08,09,01,54,21.80
2018,08,09,01,55,21.80
2018,08,09,01,56,21.80
2018,08,09,01,57,21.80
2018,08,09,01,58,21.80
2018,08,09,01,59,21.80
2018,08,09,02,00,21.80
2018,08,09,02,01,21.70
2018,08,09,02,02,21.70
2018,08,09,02,03,21.70
2018,08,09,02,04,21.70
2018,08,09,02,05,21.70
2018,08,09,02,06,21.60
2018,08,09,02,07,21.60
2018,08,09,02,08,21.60
2018,08,09,02,09,21.60
2018,08,09,02,10,21.50
2018,08,09,02,11,21.50
2018,08,09,02,12,21.50
2018,08,09,02,13,21.40
2018,08,09,02,14,21.40
2018,08,09,02,15,21.30
2018,08,09,02,16,21.30
2018,08,09,02,17,21.30
2018,08,09,02,18,21.30
2018,08,09,02,19,21.30
2018,08,09,02,20,21.30
2018,08,09,02,21,21.30
2018,08,09,02,22,21.20
2018,08,09,02,23,21.20
2018,08,09,02,24,21.20
2018,08,09,02,25,21.10
2018,08,09,02,26,21.10
2018,08,09,02,27,21.10
2018,08,09,02,28,21.10
2018,08,09,02,29,21.10
2018,08,09,02,30,21.10
2018,08,09,02,31,21.10
2018,08,09,02,32,21.10
2018,08,09,02,33,21.10
2018,08,09,02,34,21.10
2018,08,09,02,35,21.10
2018,08,09,02,36,21.10
2018,08,09,02,37,21.10
2018,08,09,02,38,21.10
2018,08,09,02,39,21.10
2018,08,09,02,40,21.10
2018,08,09,02,41,21.10
2018,08,09,02,42,21.10
2018,08,09,02,43,21.10
2018,08,09,02,44,21.10
2018,08,09,02,45,21.10
2018,08,09,02,46,21.10
2018,08,09,02,47,21.00
2018,08,09,02,48,21.00
2018,08,09,02,49,21.00
2018,08,09,02,50,21.00
2018,08,09,02,51,21.00
2018,08,09,02,52,21.00
2018,08,09,02,53,20.90
2018,08,09,02,54,20.90
2018,08,09,02,55,20.90
2018,08,09,02,56,20.90
2018,08,09,02,57,20.90
2018,08,09,02,58,20.90
2018,08,09,02,59,20.90
2018,08,09,03,00,20.90
2018,08,09,03,01,20.90
2018,08,09,03,02,20.80
2018,08,09,03,03,20.80
2018,08,09,03,04,20.80
2018,08,09,03,05,20.80
2018,08,09,03,06,20.80
2018,08,09,03,07,20.80
2018,08,09,03,08,20.80
2018,08,09,03,09,20.80
2018,08,09,03,10,20.80
2018,08,09,03,11,20.80
2018,08,09,03,12,20.80
2018,08,09,03,13,20.70
2018,08,09,03,14,20.70
2018,08,09,03,15,20.70
2018,08,09,03,16,20.70
2018,08,09,03,17,20.70
2018,08,09,03,18,20.70
2018,08,09,03,19,20.70
2018,08,09,03,20,20.70
2018,08,09,03,21,20.60
2018,08,09,03,22,20.60
2018,08,09,03,23,20.60
2018,08,09,03,24,20.60
2018,08,09,03,25,20.60
2018,08,09,03,26,20.60
2018,08,09,03,27,20.60
2018,08,09,03,28,20.60
2018,08,09,03,29,20.50
2018,08,09,03,30,20.50
2018,08,09,03,31,20.50
2018,08,09,03,32,20.50
2018,08,09,03,33,20.50
2018,08,09,03,34,20.50
2018,08,09,03,35,20.40
2018,08,09,03,36,20.40
2018,08,09,03,37,20.40
2018,08,09,03,38,20.40
2018,08,09,03,39,20.40
2018,08,09,03,40,20.40
2018,08,09,03,41,20.40
2018,08,09,03,42,20.40
2018,08,09,03,43,20.40
2018,08,09,03,44,20.40
2018,08,09,03,45,20.40
2018,08,09,03,46,20.40
2018,08,09,03,47,20.40
2018,08,09,03,48,20.40
2018,08,09,03,49,20.40
2018,08,09,03,50,20.30
2018,08,09,03,51,20.30
2018,08,09,03,52,20.30
2018,08,09,03,53,20.30
2018,08,09,03,54,20.30
2018,08,09,03,55,20.30
2018,08,09,03,56,20.30
2018,08,09,03,57,20.30
2018,08,09,03,58,20.20
2018,08,09,03,59,20.20
2018,08,09,04,00,20.20
2018,08,09,04,01,20.20
2018,08,09,04,02,20.10
2018,08,09,04,03,20.10
2018,08,09,04,04,20.10
2018,08,09,04,05,20.00
2018,08,09,04,06,20.00
2018,08,09,04,07,19.90
2018,08,09,04,08,19.90
2018,08,09,04,09,19.80
2018,08,09,04,10,19.80
2018,08,09,04,11,19.80
2018,08,09,04,12,19.80
2018,08,09,04,13,19.80
2018,08,09,04,14,19.80
2018,08,09,04,15,19.70
2018,08,09,04,16,19.70
2018,08,09,04,17,19.70
2018,08,09,04,18,19.70
2018,08,09,04,19,19.60
2018,08,09,04,20,19.60
2018,08,09,04,21,19.60
2018,08,09,04,22,19.60
2018,08,09,04,23,19.60
2018,08,09,04,24,19.60
2018,08,09,04,25,19.50
2018,08,09,04,26,19.60
2018,08,09,04,27,19.50
2018,08,09,04,28,19.50
2018,08,09,04,29,19.50
2018,08,09,04,30,19.50
2018,08,09,04,31,19.40
2018,08,09,04,32,19.40
2018,08,09,04,33,19.40
2018,08,09,04,34,19.40
2018,08,09,04,35,19.40
2018,08,09,04,36,19.40
2018,08,09,04,37,19.40
2018,08,09,04,38,19.40
2018,08,09,04,39,19.40
2018,08,09,04,40,19.40
2018,08,09,04,41,19.40
2018,08,09,04,42,19.40
2018,08,09,04,43,19.30
2018,08,09,04,44,19.30
2018,08,09,04,45,19.30
2018,08,09,04,46,19.30
2018,08,09,04,47,19.20
2018,08,09,04,48,19.20
2018,08,09,04,49,19.20
2018,08,09,04,50,19.20
2018,08,09,04,51,19.20
2018,08,09,04,52,19.20
2018,08,09,04,53,19.20
2018,08,09,04,54,19.20
2018,08,09,04,55,19.20
2018,08,09,04,56,19.20
2018,08,09,04,57,19.10
2018,08,09,04,58,19.10
2018,08,09,04,59,19.10
2018,08,09,05,00,19.10
2018,08,09,05,01,19.10
2018,08,09,05,02,19.10
2018,08,09,05,03,19.10
2018,08,09,05,04,19.00
2018,08,09,05,05,19.00
2018,08,09,05,06,19.00
2018,08,09,05,07,18.90
2018,08,09,05,08,18.90
2018,08,09,05,09,18.90
2018,08,09,05,10,18.90
2018,08,09,05,11,18.90
2018,08,09,05,12,18.80
2018,08,09,05,13,18.80
2018,08,09,05,14,18.80
2018,08,09,05,15,18.80
2018,08,09,05,16,18.80
2018,08,09,05,17,18.80
2018,08,09,05,18,18.80
2018,08,09,05,19,18.80
2018,08,09,05,20,18.80
2018,08,09,05,21,18.80
2018,08,09,05,22,18.80
2018,08,09,05,23,18.70
2018,08,09,05,24,18.70
2018,08,09,05,25,18.70
2018,08,09,05,26,18.60
2018,08,09,05,27,18.60
2018,08,09,05,28,18.60
2018,08,09,05,29,18.60
2018,08,09,05,30,18.50
2018,08,09,05,31,18.50
2018,08,09,05,32,18.40
2018,08,09,05,33,18.40
2018,08,09,05,34,18.40
2018,08,09,05,35,18.40
2018,08,09,05,36,18.40
2018,08,09,05,37,18.40
2018,08,09,05,38,18.40
2018,08,09,05,39,18.40
2018,08,09,05,40,18.40
2018,08,09,05,41,18.40
2018,08,09,05,42,18.40
2018,08,09,05,43,18.40
2018,08,09,05,44,18.40
2018,08,09,05,45,18.30
2018,08,09,05,46,18.30
2018,08,09,05,47,18.30
2018,08,09,05,48,18.30
2018,08,09,05,49,18.30
2018,08,09,05,50,18.20
2018,08,09,05,51,18.20
2018,08,09,05,52,18.20
2018,08,09,05,53,18.20
2018,08,09,05,54,18.20
2018,08,09,05,55,18.10
2018,08,09,05,56,18.10
2018,08,09,05,57,18.10
2018,08,09,05,58,18.10
2018,08,09,05,59,18.10
2018,08,09,06,00,18.10
2018,08,09,06,01,18.10
2018,08,09,06,02,18.10
2018,08,09,06,03,18.10
2018,08,09,06,04,18.10
2018,08,09,06,05,18.10
2018,08,09,06,06,18.10
2018,08,09,06,07,18.00
2018,08,09,06,08,18.00
2018,08,09,06,09,18.00
2018,08,09,06,10,17.90
2018,08,09,06,11,17.90
2018,08,09,06,12,17.90
2018,08,09,06,13,17.90
2018,08,09,06,14,17.90
2018,08,09,06,15,17.90
2018,08,09,06,16,17.90
2018,08,09,06,17,17.90
2018,08,09,06,18,17.90
2018,08,09,06,19,17.90
2018,08,09,06,20,17.90
2018,08,09,06,21,17.90
2018,08,09,06,22,17.90
2018,08,09,06,23,17.90
2018,08,09,06,24,17.90
2018,08,09,06,25,17.90
2018,08,09,06,26,17.90
2018,08,09,06,27,17.90
2018,08,09,06,28,17.90
2018,08,09,06,29,18.00
2018,08,09,06,30,18.00
2018,08,09,06,31,18.10
2018,08,09,06,32,18.10
2018,08,09,06,33,18.10
2018,08,09,06,34,18.10
2018,08,09,06,35,18.10
2018,08,09,06,36,18.10
2018,08,09,06,37,18.10
2018,08,09,06,38,18.10
2018,08,09,06,39,18.10
2018,08,09,06,40,18.10
2018,08,09,06,41,18.10
2018,08,09,06,42,18.10
2018,08,09,06,43,18.10
2018,08,09,06,44,18.10
2018,08,09,06,45,18.10
2018,08,09,06,46,18.10
2018,08,09,06,47,18.10
2018,08,09,06,48,18.10
2018,08,09,06,49,18.10
2018,08,09,06,50,18.20
2018,08,09,06,51,18.20
2018,08,09,06,52,18.20
2018,08,09,06,53,18.20
2018,08,09,06,54,18.20
2018,08,09,06,55,18.20
2018,08,09,06,56,18.20
2018,08,09,06,57,18.20
2018,08,09,06,58,18.20
2018,08,09,06,59,18.10
2018,08,09,07,00,18.10
2018,08,09,07,01,18.10
2018,08,09,07,02,18.10
2018,08,09,07,03,18.10
2018,08,09,07,04,18.10
2018,08,09,07,05,18.10
2018,08,09,07,06,18.10
2018,08,09,07,07,18.20
2018,08,09,07,08,18.20
2018,08,09,07,09,18.20
2018,08,09,07,10,18.20
2018,08,09,07,11,18.20
2018,08,09,07,12,18.20
2018,08,09,07,13,18.20
2018,08,09,07,14,18.20
2018,08,09,07,15,18.20
2018,08,09,07,16,18.20
2018,08,09,07,17,18.20
2018,08,09,07,18,18.20
2018,08,09,07,19,18.20
2018,08,09,07,20,18.20
2018,08,09,07,21,18.20
2018,08,09,07,22,18.20
2018,08,09,07,23,18.20
2018,08,09,07,24,18.20
2018,08,09,07,25,18.20
2018,08,09,07,26,18.20
2018,08,09,07,27,18.30
2018,08,09,07,28,18.30
2018,08,09,07,29,18.30
2018,08,09,07,30,18.30
2018,08,09,07,31,18.30
2018,08,09,07,32,18.30
2018,08,09,07,33,18.30
2018,08,09,07,34,18.30
2018,08,09,07,35,18.30
2018,08,09,07,36,18.30
2018,08,09,07,37,18.30
2018,08,09,07,38,18.30
2018,08,09,07,39,18.30
2018,08,09,07,40,18.30
2018,08,09,07,41,18.30
2018,08,09,07,42,18.30
2018,08,09,07,43,18.30
2018,08,09,07,44,18.30
2018,08,09,07,45,18.30
2018,08,09,07,46,18.30
2018,08,09,07,47,18.40
2018,08,09,07,48,18.40
2018,08,09,07,49,18.40
2018,08,09,07,50,18.50
2018,08,09,07,51,18.60
2018,08,09,07,52,18.60
2018,08,09,07,53,18.60
2018,08,09,07,54,18.70
2018,08,09,07,55,18.70
2018,08,09,07,56,18.70
2018,08,09,07,57,18.80
2018,08,09,07,58,18.80
2018,08,09,07,59,18.90
2018,08,09,08,00,18.90
2018,08,09,08,01,18.90
2018,08,09,08,02,19.00
2018,08,09,08,03,19.00
2018,08,09,08,04,19.10
2018,08,09,08,05,19.10
2018,08,09,08,06,19.20
2018,08,09,08,07,19.30
2018,08,09,08,08,19.30
2018,08,09,08,09,19.40
2018,08,09,08,10,19.40
2018,08,09,08,11,19.50
2018,08,09,08,12,19.60
2018,08,09,08,13,19.60
2018,08,09,08,14,19.70
2018,08,09,08,15,19.80
2018,08,09,08,16,19.80
2018,08,09,08,17,19.90
2018,08,09,08,18,20.00
2018,08,09,08,19,20.00
2018,08,09,08,20,20.10
2018,08,09,08,21,20.20
2018,08,09,08,22,20.20
2018,08,09,08,23,20.30
2018,08,09,08,24,20.30
2018,08,09,08,25,20.40
2018,08,09,08,26,20.40
2018,08,09,08,27,20.40
2018,08,09,08,28,20.50
2018,08,09,08,29,20.60
2018,08,09,08,30,20.60
2018,08,09,08,31,20.70
2018,08,09,08,32,20.70
2018,08,09,08,33,20.80
2018,08,09,08,34,20.90
2018,08,09,08,35,20.90
2018,08,09,08,36,21.00
2018,08,09,08,37,21.10
2018,08,09,08,38,21.10
2018,08,09,08,39,21.20
2018,08,09,08,40,21.30
2018,08,09,08,41,21.40
2018,08,09,08,42,21.40
2018,08,09,08,43,21.50
2018,08,09,08,44,21.50
2018,08,09,08,45,21.60
2018,08,09,08,46,21.60
2018,08,09,08,47,21.70
2018,08,09,08,48,21.70
2018,08,09,08,49,21.80
2018,08,09,08,50,21.80
2018,08,09,08,51,21.80
2018,08,09,08,52,21.90
2018,08,09,08,53,21.90
2018,08,09,08,54,21.90
2018,08,09,08,55,22.00
2018,08,09,08,56,22.10
2018,08,09,08,57,22.10
2018,08,09,08,58,22.10
2018,08,09,08,59,22.20
2018,08,09,09,00,22.20
2018,08,09,09,01,22.20
2018,08,09,09,02,22.20
2018,08,09,09,03,22.10
2018,08,09,09,04,22.10
2018,08,09,09,05,22.10
2018,08,09,09,06,22.10
2018,08,09,09,07,22.10
2018,08,09,09,08,22.10
2018,08,09,09,09,22.10
2018,08,09,09,10,22.10
2018,08,09,09,11,22.10
2018,08,09,09,12,22.10
2018,08,09,09,13,22.10
2018,08,09,09,14,22.10
2018,08,09,09,15,22.20
2018,08,09,09,16,22.20
2018,08,09,09,17,22.20
2018,08,09,09,18,22.20
2018,08,09,09,19,22.30
2018,08,09,09,20,22.30
2018,08,09,09,21,22.40
2018,08,09,09,22,22.40
2018,08,09,09,23,22.50
2018,08,09,09,24,22.60
2018,08,09,09,25,22.60
2018,08,09,09,26,22.70
2018,08,09,09,27,22.80
2018,08,09,09,28,22.90
2018,08,09,09,29,23.00
2018,08,09,09,30,23.10
2018,08,09,09,31,23.20
2018,08,09,09,32,23.30
2018,08,09,09,33,23.40
2018,08,09,09,34,23.50
2018,08,09,09,35,23.60
2018,08,09,09,36,23.70
2018,08,09,09,37,23.80
2018,08,09,09,38,23.90
2018,08,09,09,39,24.10
2018,08,09,09,40,24.20
2018,08,09,09,41,24.30
2018,08,09,09,42,24.40
2018,08,09,09,43,24.50
2018,08,09,09,44,24.60
2018,08,09,09,45,24.70
2018,08,09,09,46,24.70
2018,08,09,09,47,24.70
2018,08,09,09,48,24.70
2018,08,09,09,49,24.70
2018,08,09,09,50,24.70
2018,08,09,09,51,24.80
2018,08,09,09,52,24.70
2018,08,09,09,53,24.70
2018,08,09,09,54,24.70
2018,08,09,09,55,24.70
2018,08,09,09,56,24.70
2018,08,09,09,57,24.60
2018,08,09,09,58,24.60
2018,08,09,09,59,24.60
2018,08,09,10,00,24.60
2018,08,09,10,01,24.60
2018,08,09,10,02,24.60
2018,08,09,10,03,24.70
2018,08,09,10,04,24.70
2018,08,09,10,05,24.70
2018,08,09,10,06,24.70
2018,08,09,10,07,24.80
2018,08,09,10,08,24.80
2018,08,09,10,09,24.80
2018,08,09,10,10,24.90
2018,08,09,10,11,25.00
2018,08,09,10,12,25.00
2018,08,09,10,13,25.10
2018,08,09,10,14,25.20
2018,08,09,10,15,25.30
2018,08,09,10,16,25.40
2018,08,09,10,17,25.50
2018,08,09,10,18,25.50
2018,08,09,10,19,25.60
2018,08,09,10,20,25.60
2018,08,09,10,21,25.60
2018,08,09,10,22,25.60
2018,08,09,10,23,25.70
2018,08,09,10,24,25.70
2018,08,09,10,25,25.80
2018,08,09,10,26,25.90
2018,08,09,10,27,26.00
2018,08,09,10,28,26.00
2018,08,09,10,29,26.00
2018,08,09,10,30,26.00
2018,08,09,10,31,26.00
2018,08,09,10,32,26.10
2018,08,09,10,33,26.10
2018,08,09,10,34,26.20
2018,08,09,10,35,26.20
2018,08,09,10,36,26.30
2018,08,09,10,37,26.30
2018,08,09,10,38,26.30
2018,08,09,10,39,26.30
2018,08,09,10,40,26.30
2018,08,09,10,41,26.30
2018,08,09,10,42,26.30
2018,08,09,10,43,26.30
2018,08,09,10,44,26.30
2018,08,09,10,45,26.20
2018,08,09,10,46,26.20
2018,08,09,10,47,26.10
2018,08,09,10,48,26.10
2018,08,09,10,49,26.10
2018,08,09,10,50,26.10
2018,08,09,10,51,26.10
2018,08,09,10,52,26.20
2018,08,09,10,53,26.30
2018,08,09,10,54,26.30
2018,08,09,10,55,26.40
2018,08,09,10,56,26.50
2018,08,09,10,57,26.50
2018,08,09,10,58,26.50
2018,08,09,10,59,26.40
2018,08,09,11,00,26.30
2018,08,09,11,01,26.30
2018,08,09,11,02,26.30
2018,08,09,11,03,26.30
2018,08,09,11,04,26.30
2018,08,09,11,05,26.30
2018,08,09,11,06,26.30
2018,08,09,11,07,26.20
2018,08,09,11,08,26.20
2018,08,09,11,09,26.20
2018,08,09,11,10,26.20
2018,08,09,11,11,26.10
2018,08,09,11,12,26.10
2018,08,09,11,13,26.10
2018,08,09,11,14,26.10
2018,08,09,11,15,26.10
2018,08,09,11,16,26.20
2018,08,09,11,17,26.20
2018,08,09,11,18,26.30
2018,08,09,11,19,26.40
2018,08,09,11,20,26.60
2018,08,09,11,21,26.70
2018,08,09,11,22,26.90
2018,08,09,11,23,27.00
2018,08,09,11,24,27.00
2018,08,09,11,25,27.10
2018,08,09,11,26,27.20
2018,08,09,11,27,27.20
2018,08,09,11,28,27.30
2018,08,09,11,29,27.30
2018,08,09,11,30,27.40
2018,08,09,11,31,27.40
2018,08,09,11,32,27.50
2018,08,09,11,33,27.60
2018,08,09,11,34,27.60
2018,08,09,11,35,27.60
2018,08,09,11,36,27.70
2018,08,09,11,37,27.70
2018,08,09,11,38,27.60
2018,08,09,11,39,27.60
2018,08,09,11,40,27.50
2018,08,09,11,41,27.30
2018,08,09,11,42,27.30
2018,08,09,11,43,27.20
2018,08,09,11,44,27.30
2018,08,09,11,45,27.30
2018,08,09,11,46,27.40
2018,08,09,11,47,27.50
2018,08,09,11,48,27.60
2018,08,09,11,49,27.60
2018,08,09,11,50,27.70
2018,08,09,11,51,27.70
2018,08,09,11,52,27.60
2018,08,09,11,53,27.50
2018,08,09,11,54,27.40
2018,08,09,11,55,27.30
2018,08,09,11,56,27.20
2018,08,09,11,57,27.20
2018,08,09,11,58,27.20
2018,08,09,11,59,27.20
2018,08,09,12,00,27.20
2018,08,09,12,01,27.30
2018,08,09,12,02,27.30
2018,08,09,12,03,27.40
2018,08,09,12,04,27.50
2018,08,09,12,05,27.60
2018,08,09,12,06,27.60
2018,08,09,12,07,27.60
2018,08,09,12,08,27.50
2018,08,09,12,09,27.50
2018,08,09,12,10,27.50
2018,08,09,12,11,27.50
2018,08,09,12,12,27.60
2018,08,09,12,13,27.60
2018,08,09,12,14,27.60
2018,08,09,12,15,27.70
2018,08,09,12,16,27.80
2018,08,09,12,17,27.90
2018,08,09,12,18,28.00
2018,08,09,12,19,28.10
2018,08,09,12,20,28.20
2018,08,09,12,21,28.20
2018,08,09,12,22,28.20
2018,08,09,12,23,28.10
2018,08,09,12,24,28.10
2018,08,09,12,25,28.10
2018,08,09,12,26,28.00
2018,08,09,12,27,27.90
2018,08,09,12,28,27.80
2018,08,09,12,29,27.60
2018,08,09,12,30,27.30
2018,08,09,12,31,27.10
2018,08,09,12,32,26.90
2018,08,09,12,33,26.70
2018,08,09,12,34,26.60
2018,08,09,12,35,26.40
2018,08,09,12,36,26.30
2018,08,09,12,37,26.30
2018,08,09,12,38,26.30
2018,08,09,12,39,26.40
2018,08,09,12,40,26.50
2018,08,09,12,41,26.60
2018,08,09,12,42,26.70
2018,08,09,12,43,26.80
2018,08,09,12,44,26.90
2018,08,09,12,45,27.10
2018,08,09,12,46,27.20
2018,08,09,12,47,27.20
2018,08,09,12,48,27.20
2018,08,09,12,49,27.20
2018,08,09,12,50,27.30
2018,08,09,12,51,27.40
2018,08,09,12,52,27.40
2018,08,09,12,53,27.40
2018,08,09,12,54,27.50
2018,08,09,12,55,27.60
2018,08,09,12,56,27.60
2018,08,09,12,57,27.60
2018,08,09,12,58,27.70
2018,08,09,12,59,27.70
2018,08,09,13,00,27.80
2018,08,09,13,01,27.80
2018,08,09,13,02,27.70
2018,08,09,13,03,27.70
2018,08,09,13,04,27.70
2018,08,09,13,05,27.60
2018,08,09,13,06,27.60
2018,08,09,13,07,27.50
2018,08,09,13,08,27.60
2018,08,09,13,09,27.60
2018,08,09,13,10,27.60
2018,08,09,13,11,27.60
2018,08,09,13,12,27.60
2018,08,09,13,13,27.70
2018,08,09,13,14,27.80
2018,08,09,13,15,27.90
2018,08,09,13,16,28.00
2018,08,09,13,17,28.00
2018,08,09,13,18,28.10
2018,08,09,13,19,28.20
2018,08,09,13,20,28.30
2018,08,09,13,21,28.40
2018,08,09,13,22,28.40
2018,08,09,13,23,28.40
2018,08,09,13,24,28.40
2018,08,09,13,25,28.30
2018,08,09,13,26,28.30
2018,08,09,13,27,28.30
2018,08,09,13,28,28.30
2018,08,09,13,29,28.30
2018,08,09,13,30,28.30
2018,08,09,13,31,28.30
2018,08,09,13,32,28.40
2018,08,09,13,33,28.50
2018,08,09,13,34,28.60
2018,08,09,13,35,28.80
2018,08,09,13,36,28.90
2018,08,09,13,37,29.10
2018,08,09,13,38,29.20
2018,08,09,13,39,29.30
2018,08,09,13,40,29.30
2018,08,09,13,41,29.30
2018,08,09,13,42,29.50
2018,08,09,13,43,29.60
2018,08,09,13,44,29.70
2018,08,09,13,45,29.80
2018,08,09,13,46,29.90
2018,08,09,13,47,30.00
2018,08,09,13,48,30.10
2018,08,09,13,49,30.10
2018,08,09,13,50,30.10
2018,08,09,13,51,30.10
2018,08,09,13,52,30.00
2018,08,09,13,53,29.80
2018,08,09,13,54,29.70
2018,08,09,13,55,29.60
2018,08,09,13,56,29.60
2018,08,09,13,57,29.60
2018,08,09,13,58,29.50
2018,08,09,13,59,29.50
2018,08,09,14,00,29.50
2018,08,09,14,01,29.60
2018,08,09,14,02,29.60
2018,08,09,14,03,29.60
2018,08,09,14,04,29.70
2018,08,09,14,05,29.70
2018,08,09,14,06,29.80
2018,08,09,14,07,29.80
2018,08,09,14,08,29.90
2018,08,09,14,09,30.00
2018,08,09,14,10,30.00
2018,08,09,14,11,30.10
2018,08,09,14,12,30.10
2018,08,09,14,13,30.20
2018,08,09,14,14,30.20
2018,08,09,14,15,30.30
2018,08,09,14,16,30.40
2018,08,09,14,17,30.50
2018,08,09,14,18,30.60
2018,08,09,14,19,30.60
2018,08,09,14,20,30.70
2018,08,09,14,21,30.70
2018,08,09,14,22,30.70
2018,08,09,14,23,30.70
2018,08,09,14,24,30.70
2018,08,09,14,25,30.70
2018,08,09,14,26,30.70
2018,08,09,14,27,30.70
2018,08,09,14,28,30.70
2018,08,09,14,29,30.70
2018,08,09,14,30,30.60
2018,08,09,14,31,30.60
2018,08,09,14,32,30.60
2018,08,09,14,33,30.60
2018,08,09,14,34,30.60
2018,08,09,14,35,30.60
2018,08,09,14,36,30.70
2018,08,09,14,37,30.80
2018,08,09,14,38,30.80
2018,08,09,14,39,30.90
2018,08,09,14,40,31.00
2018,08,09,14,41,31.10
2018,08,09,14,42,31.10
2018,08,09,14,43,31.10
2018,08,09,14,44,31.10
2018,08,09,14,45,31.10
2018,08,09,14,46,31.10
2018,08,09,14,47,31.10
2018,08,09,14,48,31.10
2018,08,09,14,49,31.10
2018,08,09,14,50,31.20
2018,08,09,14,51,31.20
2018,08,09,14,52,31.20
2018,08,09,14,53,31.10
2018,08,09,14,54,30.90
2018,08,09,14,55,30.90
2018,08,09,14,56,30.90
2018,08,09,14,57,30.80
2018,08,09,14,58,30.70
2018,08,09,14,59,30.70
2018,08,09,15,00,30.60
2018,08,09,15,01,30.50
2018,08,09,15,02,30.50
2018,08,09,15,03,30.40
2018,08,09,15,04,30.30
2018,08,09,15,05,30.30
2018,08,09,15,06,30.30
2018,08,09,15,07,30.20
2018,08,09,15,08,30.10
2018,08,09,15,09,30.00
2018,08,09,15,10,29.90
2018,08,09,15,11,29.70
2018,08,09,15,12,29.60
2018,08,09,15,13,29.50
2018,08,09,15,14,29.40
2018,08,09,15,15,29.30
2018,08,09,15,16,29.20
2018,08,09,15,17,29.20
2018,08,09,15,18,29.30
2018,08,09,15,19,29.30
2018,08,09,15,20,29.30
2018,08,09,15,21,29.40
2018,08,09,15,22,29.40
2018,08,09,15,23,29.50
2018,08,09,15,24,29.60
2018,08,09,15,25,29.70
2018,08,09,15,26,29.80
2018,08,09,15,27,29.90
2018,08,09,15,28,30.00
2018,08,09,15,29,30.10
2018,08,09,15,30,30.10
2018,08,09,15,31,30.20
2018,08,09,15,32,30.20
2018,08,09,15,33,30.20
2018,08,09,15,34,30.20
2018,08,09,15,35,30.20
2018,08,09,15,36,30.10
2018,08,09,15,37,30.00
2018,08,09,15,38,29.90
2018,08,09,15,39,29.80
2018,08,09,15,40,29.80
2018,08,09,15,41,29.70
2018,08,09,15,42,29.70
2018,08,09,15,43,29.70
2018,08,09,15,44,29.70
2018,08,09,15,45,29.60
2018,08,09,15,46,29.60
2018,08,09,15,47,29.60
2018,08,09,15,48,29.60
2018,08,09,15,49,29.60
2018,08,09,15,50,29.70
2018,08,09,15,51,29.90
2018,08,09,15,52,30.10
2018,08,09,15,53,30.20
2018,08,09,15,54,30.30
2018,08,09,15,55,30.40
2018,08,09,15,56,30.50
2018,08,09,15,57,30.50
2018,08,09,15,58,30.60
2018,08,09,15,59,30.60
2018,08,09,16,00,30.60
2018,08,09,16,01,30.50
2018,08,09,16,02,30.40
2018,08,09,16,03,30.30
2018,08,09,16,04,30.30
2018,08,09,16,05,30.20
2018,08,09,16,06,30.30
2018,08,09,16,07,30.30
2018,08,09,16,08,30.30
2018,08,09,16,09,30.30
2018,08,09,16,10,30.40
2018,08,09,16,11,30.50
2018,08,09,16,12,30.50
2018,08,09,16,13,30.70
2018,08,09,16,14,30.80
2018,08,09,16,15,30.80
2018,08,09,16,16,30.80
2018,08,09,16,17,30.80
2018,08,09,16,18,30.80
2018,08,09,16,19,30.80
2018,08,09,16,20,30.70
2018,08,09,16,21,30.60
2018,08,09,16,22,30.60
2018,08,09,16,23,30.50
2018,08,09,16,24,30.40
2018,08,09,16,25,30.50
2018,08,09,16,26,30.60
2018,08,09,16,27,30.70
2018,08,09,16,28,30.70
2018,08,09,16,29,30.70
2018,08,09,16,30,30.80
2018,08,09,16,31,30.90
2018,08,09,16,32,31.00
2018,08,09,16,33,31.10
2018,08,09,16,34,31.20
2018,08,09,16,35,31.20
2018,08,09,16,36,31.20
2018,08,09,16,37,31.20
2018,08,09,16,38,31.20
2018,08,09,16,39,31.20
2018,08,09,16,40,31.20
2018,08,09,16,41,31.10
2018,08,09,16,42,31.00
2018,08,09,16,43,30.90
2018,08,09,16,44,30.90
2018,08,09,16,45,31.00
2018,08,09,16,46,31.00
2018,08,09,16,47,31.00
2018,08,09,16,48,30.90
2018,08,09,16,49,30.90
2018,08,09,16,50,30.80
2018,08,09,16,51,30.80
2018,08,09,16,52,30.70
2018,08,09,16,53,30.70
2018,08,09,16,54,30.60
2018,08,09,16,55,30.50
2018,08,09,16,56,30.40
2018,08,09,16,57,30.40
2018,08,09,16,58,30.30
2018,08,09,16,59,30.30
2018,08,09,17,00,30.30
2018,08,09,17,01,30.30
2018,08,09,17,02,30.30
2018,08,09,17,03,30.30
2018,08,09,17,04,30.30
2018,08,09,17,05,30.30
2018,08,09,17,06,30.30
2018,08,09,17,07,30.40
2018,08,09,17,08,30.40
2018,08,09,17,09,30.40
2018,08,09,17,10,30.50
2018,08,09,17,11,30.50
2018,08,09,17,12,30.60
2018,08,09,17,13,30.70
2018,08,09,17,14,30.70
2018,08,09,17,15,30.80
2018,08,09,17,16,30.90
2018,08,09,17,17,30.90
2018,08,09,17,18,30.90
2018,08,09,17,19,31.00